Location: Rioux
(40.7500°S, 175.7500°E)
Time: 09:38:50
(UTC+00:00)

Cosmos 2369 Rocket - Pass Details

Date: 12 June 2024
Orbit: 828 x 852 km, 71.0° (Epoch: 20 July)

Event Time Altitude Azimuth Distance (km) Brightness Sun altitude
Exits shadow 16:09:55 28° 108° (ESE) 1,556 4.0 -38.6°
Drops below altitude 10° 16:13:55 10° 65° (ENE) 2,468 5.2 -37.8°
Sets 16:16:40 0° 53° (NE) 3,391 6.0 -37.3°
